[[{"header":{"parameterUnit":"m.s-1","parameterCategory":1,"la1":30.2991,"la2":30.254,"lo1":-89.0895,"lo2":-89.0444,"dy":0.0017,"dx":0.0017,"nx":28,"ny":28,"refTime":"2025-03-01T03:00:00:Z","depth":0,"parameterNumber":2,"parameterNumberName":"U-component_of_WINDS"},"data":[0,0,0,0,0,0,0,0,0,0,0,0,0,0,0,0,0,0,0,0,0,0,0,0,0,0,0,0,0,0,0,0,0,0,0,0,0,0,0,0,0,0,0,0,0,0,0,0,0,0,0,0,0,0,0,0,0,0,1.6047,1.6047,0,1.6101,1.6102,1.6102,1.6102,1.6101,1.61,1.6099,1.6157,1.6159,1.6162,0,0,0,0,0,0,0,0,0,0,0,0,0,1.5945,1.5947,1.6047,1.6047,1.6048,1.6101,1.6102,1.6102,1.6102,1.6101,1.61,1.6099,1.6157,1.6159,1.6162,0,0,0,0,0,0,0,0,0,0,0,0,0,1.5994,1.5948,1.6047,1.6054,1.6055,1.6101,1.6102,1.6103,1.6102,1.6101,1.61,1.6099,1.6156,1.6159,1.6162,1.6205,0,0,1.6172,1.6174,0,0,0,0,0,0,0,0,1.5991,1.5997,1.6052,1.6053,1.6055,1.6093,1.6087,1.6137,1.6102,1.6084,1.6099,1.6098,1.6137,1.6142,1.6154,1.6207,1.621,1.6173,1.6175,1.6176,1.6177,0,0,0,0,0,0,0,1.5987,1.5995,1.6068,1.6053,1.6055,1.6056,1.6061,1.6097,1.6116,1.6086,1.6086,1.6092,1.6138,1.6151,1.6156,1.6211,1.6173,1.6176,1.6178,1.6179,1.6304,1.6305,0,0,0,0,0,0,1.5982,1.5992,1.6066,1.607,1.6019,1.6058,1.6065,1.6082,1.6116,1.612,1.6093,1.6092,1.6146,1.6152,1.6158,1.6212,1.6176,1.6179,1.6181,1.6303,1.6304,1.6306,0,0,0,0,0,0,1.598,1.5989,1.6064,1.6031,1.6041,1.6061,1.6081,1.6084,1.6097,1.6121,1.6125,1.6103,1.6145,1.6153,1.6194,1.6214,1.6181,1.6184,1.6301,1.6303,1.6305,1.6318,0,0,0,0,0,0,1.5977,1.5988,1.6003,1.6031,1.6042,1.6098,1.6082,1.6086,1.6103,1.6102,1.6132,1.6136,1.6145,1.6189,1.6197,1.6218,1.6186,1.6299,1.6302,1.6304,1.6316,1.632,1.6324,0,0,0,0,0,1.5973,1.6005,1.6004,1.6013,1.6062,1.6099,1.6106,1.6115,1.6105,1.6121,1.6137,1.6135,1.621,1.6193,1.6202,1.6224,1.6298,1.6301,1.6304,1.6314,1.632,1.6324,0,0,0,0,0,0,1.5979,1.6009,1.6008,1.6049,1.6072,1.6099,1.612,1.612,1.6146,1.6144,1.6156,1.6163,1.6204,1.6218,1.6198,1.6268,1.6253,1.6258,1.6257,1.6263,1.6266,1.6263,1.6189,0,0,0,0,0,1.5985,1.6012,1.6036,1.6071,1.6082,1.6099,1.6115,1.6121,1.6145,1.6154,1.6173,1.6197,1.6226,1.6245,1.6273,1.6318,1.6326,1.6338,1.6342,1.6345,1.635,1.6377,1.6383,1.6315,1.6315,1.6315,0,0,1.5998,1.6017,1.6033,1.6072,1.609,1.6119,1.6107,1.6137,1.6159,1.6159,1.6199,1.6213,1.6241,1.6284,1.6304,1.6297,1.637,1.6349,1.6351,1.6354,1.638,1.6387,1.6392,1.6317,1.6317,1.6317,0,0,1.6036,1.6052,1.6084,1.6102,1.613,1.6141,1.6149,1.6176,1.6186,1.6225,1.6227,1.6253,1.6303,1.6323,1.634,1.6388,1.6388,1.6397,1.6418,1.6444,1.6449,1.6454,1.6473,1.6479,1.6401,1.6401,1.6401,0,1.6048,1.6091,1.61,1.6131,1.6149,1.615,1.6183,1.6201,1.6236,1.6249,1.624,1.6304,1.6322,1.6372,1.6383,1.6396,1.6407,1.6393,1.6448,1.6452,1.6457,1.6475,1.6482,1.6402,1.6402,1.6402,1.6401,0,1.6106,1.6135,1.6157,1.6191,1.6212,1.6243,1.6259,1.6279,1.6283,1.6296,1.6337,1.636,1.6393,1.6405,1.641,1.6456,1.6451,1.6445,1.643,1.6464,1.6482,1.6488,1.6403,1.6403,1.6403,1.6402,0,0,1.6148,1.6188,1.6196,1.6212,1.6244,1.6267,1.63,1.6332,1.635,1.6375,1.6403,1.6446,1.6441,1.646,1.6467,1.649,1.6529,1.6482,1.6482,1.6491,1.6583,1.6588,1.6596,1.6529,1.653,1.6531,1.6581,0,1.619,1.6247,1.6257,1.6308,1.6337,1.6339,1.6368,1.6391,1.6404,1.6432,1.6447,1.6477,1.6468,1.648,1.6502,1.6519,1.6548,1.6516,1.6557,1.6558,1.6551,1.6605,1.661,1.6656,1.6588,1.6589,1.659,0,1.6247,1.6273,1.6327,1.6356,1.6368,1.6394,1.6426,1.6451,1.6478,1.6486,1.6509,1.6513,1.6549,1.6532,1.6582,1.656,1.6578,1.6589,1.6591,1.6596,1.6577,1.6612,1.6671,1.6678,1.66,1.6599,1.6599,0,1.6274,1.6323,1.6362,1.6376,1.6411,1.6429,1.6444,1.647,1.649,1.6518,1.6531,1.6563,1.6581,1.6606,1.662,1.6606,1.667,1.6653,1.6679,1.6679,1.6692,1.6692,1.6756,1.6702,1.6702,1.6702,1.6702,0,1.6321,1.6354,1.6375,1.6399,1.6437,1.6449,1.6486,1.6501,1.6525,1.6553,1.6557,1.6584,1.66,1.6629,1.664,1.6681,1.6689,1.6698,1.67,1.6698,1.6697,1.671,1.6708,1.6704,1.6703,1.6703,1.6703,0,1.6358,1.6373,1.6416,1.6446,1.6454,1.6481,1.6507,1.6531,1.6545,1.658,1.6589,1.6611,1.6646,1.6662,1.6705,1.6713,1.676,1.676,1.6751,1.6752,1.6777,1.6775,1.6853,1.6864,1.6802,1.6803,1.6803,0,1.6387,1.6412,1.6445,1.6464,1.648,1.651,1.6531,1.6544,1.6566,1.6599,1.662,1.6655,1.6684,1.6739,1.676,1.6793,1.6795,1.682,1.68,1.6797,1.6797,1.6796,1.6799,1.6824,1.6824,1.6825,1.6825,0,1.6437,1.6444,1.6473,1.6505,1.6529,1.6555,1.6581,1.6596,1.6614,1.6638,1.6674,1.6696,1.674,1.6776,1.6811,1.6828,1.6831,1.6831,1.6839,1.6837,1.6831,1.6836,1.6762,1.683,1.6829,1.6829,1.6829,1.6828,1.6472,1.6496,1.6523,1.6556,1.6576,1.6601,1.6625,1.6643,1.6672,1.671,1.6716,1.6754,1.6783,1.683,1.6849,1.688,1.6874,1.6885,1.6888,1.6891,1.6893,1.6826,1.6886,1.6886,1.6886,1.6886,1.6886,0,1.6524,1.6542,1.6572,1.6608,1.6634,1.6633,1.6662,1.6684,1.6718,1.6744,1.6773,1.6815,1.685,1.6873,1.6909,1.6929,1.6931,1.6938,1.6937,1.6942,1.6896,1.6886,1.6936,1.6936,1.6936,1.6936,1.6936,1.6936,1.6554,1.6595,1.6605,1.6657,1.6675,1.6712,1.6729,1.6752,1.6773,1.682,1.6849,1.6864,1.689,1.6928,1.696,1.6966,1.698,1.6987,1.6993,1.695,1.6945,1.694,1.6931,1.6989,1.699,1.7037,1.7037,1.7038]},{"header":{"parameterUnit":"m.s-1","parameterCategory":1,"la1":30.2991,"la2":30.254,"lo1":-89.0895,"lo2":-89.0444,"dy":0.0017,"dx":0.0017,"nx":28,"ny":28,"refTime":"2025-03-01T03:00:00:Z","depth":0,"parameterNumber":3,"parameterNumberName":"V-component_of_WINDS"},"data":[0,0,0,0,0,0,0,0,0,0,0,0,0,0,0,0,0,0,0,0,0,0,0,0,0,0,0,0,0,0,0,0,0,0,0,0,0,0,0,0,0,0,0,0,0,0,0,0,0,0,0,0,0,0,0,0,0,0,1.0658,1.0659,0,1.0787,1.0789,1.079,1.0752,1.0749,1.0747,1.0744,1.0875,1.0881,1.0887,0,0,0,0,0,0,0,0,0,0,0,0,0,1.0375,1.038,1.0658,1.066,1.0661,1.0787,1.0789,1.079,1.0752,1.0749,1.0746,1.0743,1.0873,1.088,1.0887,0,0,0,0,0,0,0,0,0,0,0,0,0,1.05,1.0382,1.0658,1.0657,1.0659,1.0786,1.0789,1.0791,1.0753,1.0749,1.0745,1.0741,1.0871,1.088,1.0888,1.1024,0,0,1.0916,1.092,0,0,0,0,0,0,0,0,1.0493,1.0511,1.0656,1.0658,1.0659,1.0749,1.0737,1.0869,1.0754,1.0717,1.0744,1.0739,1.0836,1.0848,1.0881,1.103,1.1036,1.0917,1.0922,1.0926,1.0928,0,0,0,0,0,0,0,1.0484,1.0505,1.0709,1.0658,1.066,1.065,1.0663,1.0762,1.0798,1.072,1.0718,1.0734,1.0837,1.0872,1.0884,1.1038,1.0916,1.0924,1.093,1.0933,1.1299,1.1303,0,0,0,0,0,0,1.0475,1.0498,1.0705,1.0713,1.0565,1.0658,1.0673,1.0724,1.0797,1.0804,1.0737,1.0731,1.0859,1.0873,1.0888,1.1048,1.0926,1.0934,1.0939,1.1294,1.13,1.1304,0,0,0,0,0,0,1.0469,1.0494,1.07,1.0605,1.063,1.0667,1.0725,1.0729,1.0765,1.0809,1.0815,1.0767,1.0856,1.0876,1.0989,1.1052,1.0938,1.0946,1.1289,1.1296,1.1302,1.1371,0,0,0,0,0,0,1.0461,1.0492,1.0545,1.0606,1.0635,1.08,1.0729,1.0735,1.0781,1.0775,1.0839,1.0846,1.0855,1.0976,1.0998,1.1062,1.0953,1.1284,1.1292,1.13,1.1363,1.1379,1.1392,0,0,0,0,0,1.0451,1.056,1.0548,1.0573,1.0703,1.0804,1.082,1.0829,1.0786,1.0838,1.0866,1.0844,1.1042,1.0988,1.1013,1.108,1.128,1.129,1.1299,1.1356,1.1376,1.1392,0,0,0,0,0,0,1.0506,1.0568,1.0555,1.0688,1.0741,1.0797,1.0864,1.085,1.0916,1.0907,1.0914,1.0929,1.1045,1.1074,1.1013,1.1213,1.1154,1.1169,1.1189,1.1208,1.1222,1.1212,1.0961,0,0,0,0,0,1.0534,1.0612,1.0661,1.0773,1.08,1.0828,1.0872,1.0874,1.0929,1.0951,1.0987,1.1041,1.1114,1.1163,1.1234,1.1367,1.1378,1.1425,1.144,1.1452,1.1464,1.1532,1.1553,1.1336,1.1336,1.1336,0,0,1.0591,1.0635,1.0684,1.0785,1.0826,1.0905,1.0847,1.0934,1.0991,1.0964,1.1073,1.1101,1.1161,1.1284,1.134,1.1312,1.1526,1.1464,1.1473,1.1479,1.1544,1.1565,1.1583,1.1343,1.1342,1.134,0,0,1.0736,1.0779,1.0874,1.0916,1.0978,1.0995,1.1018,1.1076,1.1094,1.1203,1.1182,1.125,1.1379,1.1421,1.1459,1.1615,1.1596,1.1638,1.1714,1.178,1.1797,1.1812,1.1865,1.1884,1.1651,1.1651,1.1651,0,1.08,1.0919,1.0925,1.1013,1.1056,1.1034,1.1129,1.1169,1.1252,1.1282,1.1249,1.1406,1.1445,1.1576,1.1613,1.1646,1.167,1.163,1.1795,1.181,1.1824,1.1874,1.1894,1.1655,1.1655,1.1654,1.1654,0,1.0992,1.1074,1.1144,1.1222,1.1274,1.1365,1.1383,1.1435,1.1431,1.145,1.1559,1.1605,1.1682,1.1713,1.1712,1.1842,1.1822,1.1793,1.1734,1.1849,1.1896,1.1915,1.1662,1.166,1.1659,1.1658,0,0,1.1177,1.1255,1.128,1.1314,1.138,1.1442,1.1531,1.1606,1.1648,1.1705,1.1777,1.1884,1.1855,1.1898,1.1901,1.1959,1.2075,1.1921,1.1923,1.1946,1.2217,1.2238,1.226,1.2063,1.2066,1.2069,1.2211,0,1.1324,1.148,1.1487,1.1628,1.1702,1.168,1.1756,1.1804,1.1823,1.1888,1.1909,1.1983,1.1942,1.1967,1.2024,1.2049,1.2129,1.2039,1.2127,1.213,1.2111,1.2285,1.2308,1.244,1.223,1.2233,1.2235,0,1.1519,1.158,1.1728,1.1779,1.181,1.1879,1.1946,1.2008,1.206,1.207,1.2116,1.2109,1.2196,1.2135,1.2254,1.2192,1.2228,1.2245,1.2251,1.2258,1.2189,1.2294,1.2483,1.2502,1.2265,1.2263,1.226,0,1.1634,1.1754,1.1857,1.1886,1.195,1.1997,1.2026,1.2074,1.2117,1.2175,1.2203,1.2271,1.2308,1.2359,1.2369,1.2324,1.2487,1.2427,1.2495,1.2495,1.253,1.2527,1.2724,1.2557,1.2557,1.2556,1.2556,0,1.1798,1.1888,1.1909,1.1972,1.2072,1.2077,1.2175,1.22,1.2242,1.2308,1.2293,1.2355,1.2365,1.2429,1.2437,1.2531,1.2549,1.2557,1.2558,1.2558,1.2556,1.258,1.2571,1.2561,1.256,1.2559,1.2558,0,1.1944,1.1961,1.2071,1.2121,1.2135,1.2206,1.2248,1.2307,1.2324,1.2407,1.2427,1.2453,1.2526,1.2541,1.2629,1.2634,1.2746,1.2739,1.2728,1.2727,1.2792,1.2785,1.301,1.3038,1.2855,1.2857,1.2858,0,1.2046,1.2115,1.2171,1.2213,1.2243,1.2313,1.2357,1.2364,1.2409,1.2471,1.2522,1.2593,1.2651,1.2769,1.2795,1.286,1.2853,1.2927,1.2863,1.2858,1.285,1.2845,1.285,1.2939,1.2941,1.2943,1.2944,0,1.2224,1.2228,1.2292,1.2357,1.2409,1.2461,1.2511,1.2546,1.2559,1.2611,1.2685,1.273,1.2817,1.2887,1.2952,1.2979,1.2963,1.2964,1.2982,1.2982,1.2972,1.2975,1.2759,1.2959,1.2957,1.2956,1.2955,1.2955,1.2349,1.2408,1.2455,1.2525,1.2562,1.2608,1.2664,1.2687,1.275,1.2821,1.2821,1.2902,1.2948,1.3033,1.3064,1.3125,1.3101,1.3129,1.3136,1.3142,1.3146,1.2963,1.3137,1.3137,1.3136,1.3136,1.3136,0,1.2524,1.2552,1.2617,1.2685,1.2739,1.2719,1.2771,1.2817,1.2888,1.2933,1.2989,1.3072,1.3139,1.3169,1.3234,1.3277,1.3271,1.3294,1.329,1.3296,1.3166,1.3142,1.3298,1.3298,1.3298,1.3297,1.3297,1.3297,1.2621,1.2718,1.2727,1.284,1.2868,1.2947,1.2978,1.3018,1.3053,1.3147,1.3202,1.3221,1.3259,1.3326,1.3385,1.3392,1.3415,1.3441,1.3444,1.3322,1.3305,1.329,1.3267,1.3447,1.3447,1.3569,1.357,1.3571]}]]